Weather History for Juneau, WI

Change the Weather History Date:

Sunday, December 29, 2013

  Actual Average Record
Temperature  
Mean Temperature 16 °F -  
Max Temperature 34 °F 26 °F 59 °F (1984)
Min Temperature -4 °F 14 °F -16 °F (1976)
Degree Days  
Heating Degree Days 50    
Moisture  
Dew Point 10 °F    
Average Humidity 72    
Maximum Humidity 93    
Minimum Humidity 56    
Precipitation  
Precipitation 0.00 in - - ()
Sea Level Pressure  
Sea Level Pressure 29.96 in    
Wind  
Wind Speed 10 mph (NW)    
Max Wind Speed 24 mph    
Max Gust Speed 31 mph    
Visibility 9 miles    
Events      
Averages and records for this station are not official NWS values.
T = Trace of Precipitation, MM = Missing Value Source: NWS Daily Summary

Daily Weather History Graph

Daily Weather History Graph

Search for Another Location

Airport:

Trip Planner

Search our weather history database for the weather conditions in past years. The results will help you decide how hot, cold, wet, or windy it might be!

Date:

Astronomy

Dec. 29, 2013 Rise Set
Actual Time 7:27 AM CST 4:26 PM CST
Civil Twilight 6:54 AM CST 4:59 PM CST
Nautical Twilight 6:18 AM CST 5:35 PM CST
Astronomical Twilight 5:43 AM CST 6:10 PM CST
Moon 4:08 AM CST (12/29) 2:06 PM CST (12/29)
Length of Visible Light 10h 04m
Length of Day
8h 59m
Waning Crescent, 11% of the Moon is Illuminated
Dec 29
Waning Crescent
Jan 1
New
Jan 7
First Quarter
Jan 15
Full
Jan 23
Last Quarter

Hourly Weather History & Observations

Time (CST) Temp. Windchill Dew Point Humidity Pressure Visibility Wind Dir Wind Speed Gust Speed Precip Events Conditions
12:15 AM 33.6 °F 26.8 °F 26.1 °F 74% 29.73 in 10.0 mi SSW 8.1 mph - N/A   Clear
12:35 AM 34.2 °F 28.2 °F 26.2 °F 73% 29.72 in 10.0 mi SSW 6.9 mph - N/A   Clear
12:55 AM 34.5 °F 29.4 °F 26.6 °F 73% 29.71 in 10.0 mi SSW 5.8 mph - N/A   Clear
1:15 AM 33.1 °F 27.7 °F 26.4 °F 77% 29.71 in 10.0 mi South 5.8 mph - N/A   Clear
1:35 AM 33.1 °F 27.7 °F 26.4 °F 77% 29.71 in 10.0 mi SSW 5.8 mph - N/A   Clear
1:55 AM 32.0 °F 24.8 °F 26.2 °F 79% 29.72 in 10.0 mi South 8.1 mph - N/A   Clear
2:15 AM 30.6 °F 23.8 °F 24.3 °F 77% 29.73 in 10.0 mi SSW 6.9 mph - N/A   Clear
2:35 AM 30.6 °F 23.1 °F 25.2 °F 80% 29.74 in 10.0 mi SSW 8.1 mph - N/A   Clear
2:55 AM 30.0 °F 21.7 °F 25.0 °F 82% 29.74 in 10.0 mi SSW 9.2 mph - N/A   Scattered Clouds
3:15 AM 30.0 °F 23.2 °F 25.7 °F 84% 29.74 in 10.0 mi SW 6.9 mph - N/A   Overcast
3:35 AM 31.8 °F 25.4 °F 27.0 °F 82% 29.73 in 10.0 mi WSW 6.9 mph - N/A   Overcast
3:55 AM 33.3 °F 27.9 °F 26.6 °F 77% 29.73 in 10.0 mi West 5.8 mph - N/A   Overcast
4:15 AM 32.5 °F 29.3 °F 26.6 °F 79% 29.74 in 10.0 mi West 3.5 mph - N/A   Overcast
4:35 AM 32.4 °F 29.1 °F 27.0 °F 80% 29.74 in 10.0 mi West 3.5 mph - N/A   Overcast
4:55 AM 33.4 °F 25.4 °F 27.5 °F 79% 29.75 in 10.0 mi NW 10.4 mph 16.1 mph N/A   Overcast
5:15 AM 32.0 °F 21.6 °F 27.5 °F 83% 29.76 in 10.0 mi North 15.0 mph - N/A   Overcast
5:35 AM 30.9 °F 18.4 °F 27.9 °F 88% 29.78 in 3.0 mi North 20.7 mph 27.6 mph N/A   Overcast
5:55 AM 30.0 °F 16.3 °F 28.0 °F 92% 29.80 in 1.8 mi North 24.2 mph 31.1 mph N/A   Overcast
6:15 AM 28.4 °F 16.6 °F 26.6 °F 93% 29.82 in 5.0 mi North 16.1 mph 28.8 mph N/A   Overcast
6:35 AM 27.9 °F 15.1 °F 25.7 °F 92% 29.84 in 7.0 mi North 18.4 mph 26.5 mph N/A   Overcast
6:55 AM 27.1 °F 16.4 °F 24.4 °F 90% 29.86 in 4.0 mi North 12.7 mph 26.5 mph N/A   Overcast
7:15 AM 26.2 °F 13.8 °F 23.5 °F 90% 29.87 in 5.0 mi North 16.1 mph 24.2 mph N/A   Overcast
7:35 AM 25.2 °F 12.4 °F 21.6 °F 86% 29.88 in 5.0 mi North 16.1 mph 26.5 mph N/A   Overcast
7:55 AM 24.8 °F 11.9 °F 21.9 °F 89% 29.89 in 4.0 mi North 16.1 mph 23.0 mph N/A   Overcast
8:15 AM 24.6 °F 13.2 °F 22.3 °F 91% 29.89 in 4.0 mi North 12.7 mph - N/A   Overcast
8:35 AM 24.1 °F 9.4 °F 21.2 °F 89% 29.90 in 4.0 mi NNW 20.7 mph 26.5 mph N/A   Overcast
8:55 AM 22.6 °F 7.9 °F 19.4 °F 87% 29.92 in 10.0 mi NNW 19.6 mph 27.6 mph N/A   Overcast
9:15 AM 22.1 °F 8.9 °F 18.7 °F 87% 29.93 in 7.0 mi NNW 15.0 mph 20.7 mph N/A   Overcast
9:35 AM 20.5 °F 4.6 °F 16.9 °F 86% 29.94 in 7.0 mi NNW 20.7 mph 26.5 mph N/A   Overcast
9:55 AM 20.3 °F 6.1 °F 15.6 °F 82% 29.95 in 10.0 mi NNW 16.1 mph 25.3 mph N/A   Overcast
10:15 AM 20.3 °F 6.1 °F 14.9 °F 80% 29.96 in 10.0 mi NW 16.1 mph 23.0 mph N/A   Overcast
10:35 AM 19.4 °F 5.5 °F 13.1 °F 76% 29.97 in 10.0 mi NNW 15.0 mph 23.0 mph N/A   Overcast
10:55 AM 19.8 °F 5.9 °F 12.6 °F 74% 29.97 in 10.0 mi NNW 15.0 mph 19.6 mph N/A   Overcast
11:15 AM 19.6 °F 7.4 °F 11.5 °F 71% 29.97 in 10.0 mi NNW 11.5 mph 20.7 mph N/A   Overcast
11:35 AM 19.0 °F 5.6 °F 9.1 °F 65% 29.97 in 10.0 mi NNW 13.8 mph 21.9 mph N/A   Overcast
11:55 AM 19.6 °F 6.2 °F 10.6 °F 68% 29.97 in 10.0 mi NNW 13.8 mph 19.6 mph N/A   Overcast
12:15 PM 19.4 °F 5.5 °F 8.4 °F 62% 29.97 in 10.0 mi NNW 15.0 mph 20.7 mph N/A   Overcast
12:35 PM 19.0 °F 5.6 °F 7.7 °F 61% 29.97 in 10.0 mi NNW 13.8 mph 23.0 mph N/A   Overcast
12:55 PM 18.7 °F 6.3 °F 7.5 °F 62% 29.97 in 10.0 mi NW 11.5 mph 23.0 mph N/A   Overcast
1:15 PM 18.3 °F 4.1 °F 6.8 °F 61% 29.97 in 10.0 mi NW 15.0 mph 20.7 mph N/A   Overcast
1:35 PM 17.6 °F 3.2 °F 6.4 °F 62% 29.99 in 10.0 mi NW 15.0 mph 20.7 mph N/A   Overcast
1:55 PM 17.1 °F 3.6 °F 6.3 °F 63% 30.00 in 10.0 mi NW 12.7 mph 18.4 mph N/A   Overcast
2:15 PM 16.3 °F 2.7 °F 5.2 °F 62% 30.00 in 10.0 mi WNW 12.7 mph 19.6 mph N/A   Overcast
2:35 PM 16.5 °F 3.6 °F 4.6 °F 60% 30.01 in 10.0 mi NW 11.5 mph 19.6 mph N/A   Overcast
2:55 PM 15.1 °F 2.5 °F 3.9 °F 61% 30.02 in 10.0 mi NW 10.4 mph 18.4 mph N/A   Mostly Cloudy
3:15 PM 14.9 °F -0.3 °F 3.7 °F 61% 30.03 in 10.0 mi NW 15.0 mph 20.7 mph N/A   Overcast
3:35 PM 14.0 °F 0.5 °F 2.5 °F 60% 30.03 in 10.0 mi NW 11.5 mph 16.1 mph N/A   Mostly Cloudy
3:55 PM 13.5 °F 1.3 °F 2.5 °F 62% 30.04 in 10.0 mi NW 9.2 mph - N/A   Mostly Cloudy
4:15 PM 12.7 °F -0.4 °F 1.6 °F 61% 30.04 in 10.0 mi NW 10.4 mph 17.3 mph N/A   Scattered Clouds
4:35 PM 11.3 °F 0.7 °F 1.2 °F 64% 30.05 in 10.0 mi NW 6.9 mph - N/A   Clear
4:55 PM 10.9 °F -0.8 °F 0.5 °F 63% 30.07 in 10.0 mi NW 8.1 mph - N/A   Mostly Cloudy
5:15 PM 10.4 °F -0.4 °F -0.0 °F 63% 30.07 in 10.0 mi NW 6.9 mph - N/A   Overcast
5:35 PM 9.9 °F -1.1 °F -2.0 °F 59% 30.08 in 10.0 mi NW 6.9 mph - N/A   Scattered Clouds
5:55 PM 9.1 °F -4.0 °F -3.6 °F 56% 30.09 in 10.0 mi NW 9.2 mph - N/A   Clear
6:15 PM 8.2 °F -5.1 °F -4.4 °F 57% 30.09 in 10.0 mi WNW 9.2 mph - N/A   Clear
6:35 PM 7.3 °F -2.8 °F -4.5 °F 58% 30.10 in 10.0 mi WNW 5.8 mph - N/A   Clear
6:55 PM 6.4 °F -3.9 °F -4.2 °F 62% 30.11 in 10.0 mi WNW 5.8 mph - N/A   Clear
7:15 PM 6.1 °F -6.8 °F -4.7 °F 61% 30.12 in 10.0 mi WNW 8.1 mph - N/A   Clear
7:35 PM 5.5 °F -6.3 °F -5.3 °F 61% 30.13 in 10.0 mi WNW 6.9 mph - N/A   Clear
7:55 PM 5.0 °F -8.1 °F -5.4 °F 62% 30.14 in 10.0 mi WNW 8.1 mph - N/A   Clear
8:15 PM 4.1 °F -9.2 °F -6.3 °F 62% 30.14 in 10.0 mi WNW 8.1 mph - N/A   Clear
8:35 PM 3.2 °F -10.3 °F -6.7 °F 63% 30.15 in 10.0 mi WNW 8.1 mph - N/A   Clear
8:55 PM 2.7 °F -10.9 °F -7.6 °F 62% 30.15 in 10.0 mi WNW 8.1 mph - N/A   Clear
9:15 PM 1.8 °F -14.0 °F -8.1 °F 63% 30.16 in 10.0 mi West 10.4 mph - N/A   Clear
9:35 PM 0.5 °F -12.3 °F -8.9 °F 65% 30.17 in 10.0 mi WNW 6.9 mph - N/A   Clear
9:55 PM -0.0 °F -13.0 °F -9.4 °F 65% 30.17 in 10.0 mi WNW 6.9 mph - N/A   Clear
10:15 PM -0.8 °F -12.5 °F -10.1 °F 65% 30.17 in 10.0 mi WNW 5.8 mph - N/A   Clear
10:35 PM -1.7 °F -13.5 °F -10.7 °F 66% 30.18 in 10.0 mi WNW 5.8 mph - N/A   Clear
10:55 PM -2.4 °F -14.4 °F -11.2 °F 66% 30.18 in 10.0 mi WNW 5.8 mph - N/A   Clear
11:15 PM -3.1 °F -13.5 °F -11.9 °F 66% 30.19 in 10.0 mi WNW 4.6 mph - N/A   Clear
11:35 PM -3.6 °F -15.9 °F -12.5 °F 66% 30.19 in 10.0 mi WNW 5.8 mph - N/A   Clear
11:55 PM -4.2 °F -19.3 °F -13.2 °F 65% 30.20 in 10.0 mi WNW 8.1 mph - N/A   Clear